Location: West Cummington
(42.4920°N, 72.9680°W)
Time: 16:51:54
(UTC-04:00)

Daily predictions for brighter satellites

Satellite Brightness Start Highest point End
(mag) Time Altitude Azimuth Time Altitude Azimuth Time Altitude Azimuth
USA 267 3.6 20:00:36 10° NE 20:07:08 73° NW 20:13:38 10° WSW
Spot 2 Rocket 3.5 20:06:40 10° SSE 20:11:45 77° ENE 20:16:52 10° N
Milstar 3 4.1 20:05:57 10° WSW 20:13:15 28° S 20:18:55 10° SE
OAO 3 Rocket 4.3 20:09:48 10° SW 20:14:02 30° S 20:18:20 10° ESE
Cosmos 2297 Rocket 4.2 20:09:22 10° NW 20:14:12 30° WSW 20:19:01 10° SSW
Cosmos 1869 4.0 20:10:59 10° SSE 20:14:32 33° E 20:18:07 10° NNE
FENGYUN 3A 4.4 20:10:06 10° S 20:15:22 58° W 20:20:39 10° NNW
Resurs 01 Rocket 1.7 20:11:49 10° SSE 20:16:16 88° WSW 20:20:46 10° NNW
Cosmos 1892 3.0 20:15:31 10° NNW 20:19:18 73° W 20:23:05 10° S
Cosmos 1400 Rocket 3.4 20:17:41 10° NNW 20:21:32 60° W 20:25:24 10° S
Cosmos 2263 Rocket 3.3 20:17:12 10° N 20:21:56 27° NE 20:26:38 10° ESE
GRACE-1 3.7 20:20:56 10° N 20:23:41 68° E 20:26:25 10° S
GRACE-2 3.7 20:21:20 10° N 20:24:04 68° E 20:26:48 10° S
CZ-4B DEB 3.7 20:22:14 10° SE 20:24:52 28° ENE 20:27:33 10° N
YAOGAN 6 4.4 20:22:39 10° ESE 20:25:02 17° ENE 20:27:25 10° NNE
Meteor 1-29 3.8 20:24:23 10° NE 20:27:29 29° E 20:30:33 10° SSE
Cosmos 2322 Rocket 2.7 20:22:43 10° S 20:27:50 38° ESE 20:32:58 10° NE
H-2A R/B 3.8 20:25:55 10° S 20:29:41 48° W 20:33:27 10° NNW
Envisat 3.3 20:26:48 10° SE 20:31:42 51° ENE 20:36:37 10° N
Cosmos 1302 Rocket 4.0 20:27:04 10° SSW 20:32:16 90° ESE 20:37:30 10° NNE
Cosmos 220 Rocket 4.4 20:28:05 10° N 20:32:26 50° ENE 20:36:43 10° SE
Cosmos 1315 Rocket 2.9 20:31:03 10° NNW 20:35:10 82° W 20:39:11 10° S
Cosmos 2360 Rocket 3.5 20:34:56 10° SE 20:38:36 18° E 20:42:16 10° ENE
Cosmos 1933 4.5 20:35:43 10° SE 20:38:56 24° E 20:42:13 10° NE
Cosmos 1980 Rocket 2.8 20:33:22 10° SW 20:38:59 65° WNW 20:44:41 10° NNE
USA 234 3.3 20:35:33 11° ESE 20:41:49 79° NE 20:48:23 10° NW
Cosmos 2026 Rocket 4.0 20:36:23 10° N 20:42:36 62° E 20:48:39 10° SSE
Intercosmos 25 Rocket 3.2 20:44:11 10° S 20:47:15 49° E 20:51:00 10° NNE
Cosmos 1825 2.2 20:45:12 10° N 20:48:59 59° E 20:52:20 13° SSE
SL-16 R/B 2.2 20:49:48 10° S 20:55:23 63° ESE 21:01:00 10° NNE
Cosmos 1862 3.4 20:57:53 10° N 21:01:52 58° E 21:04:33 19° SSE
ATLAS 5 CENTAUR R/B 3.1 20:56:27 10° NNW 21:02:01 40° NE 21:06:11 19° ESE
Cosmos 1634 Rocket 4.3 20:56:21 10° SSW 21:02:38 75° W 21:08:59 10° N
Helios 1B rocket 2.6 20:59:43 10° N 21:03:50 74° WNW 21:07:54 10° SSW
ERS-1 Rocket 3.2 21:02:09 19° SE 21:05:34 51° ENE 21:10:26 10° N
Lacrosse 4 Rocket 1.4 21:01:34 10° NNW 21:05:54 89° NE 21:08:46 21° SSE
USA 186 3.8 21:04:03 10° SSW 21:06:17 23° W 21:08:41 10° NW
Cosmos 1655 Rocket 4.0 21:02:58 10° N 21:09:24 81° E 21:15:37 11° S
Cosmos 1733 Rocket 3.0 21:06:29 10° N 21:10:57 79° E 21:14:14 18° SSE
ERBS 3.2 21:07:43 10° WNW 21:11:02 44° SW 21:12:44 24° S
Cosmos 1939 Rocket 3.0 21:08:26 13° S 21:11:58 75° WSW 21:16:00 10° NNW
ARGOS 4.0 21:11:28 22° ESE 21:13:58 34° ENE 21:18:45 10° N
Cosmos 1862 Rocket 3.5 21:13:23 10° S 21:17:49 78° E 21:22:19 10° N
SeaSat 1 3.2 21:17:14 24° ESE 21:19:32 38° NE 21:24:06 10° NNW
USA 229 DEB 4.2 21:16:58 10° S 21:22:55 33° ESE 21:28:58 10° NE
USA 229 4.2 21:17:04 10° S 21:23:01 33° ESE 21:29:02 10° NE
Cosmos 1408 3.7 21:20:52 10° NNW 21:24:23 43° W 21:27:28 13° SSW
Cosmos 1992 Rocket 3.9 21:19:39 10° SSW 21:24:54 86° ESE 21:30:10 10° NNE
Cosmos 1844 Rocket 4.3 21:21:01 10° N 21:25:11 21° NE 21:27:24 17° E
Atlas Centaur 2 3.8 21:23:29 10° SW 21:29:37 28° SSE 21:31:32 26° SE
Cosmos 2266 Rocket 4.2 21:24:29 10° N 21:30:36 52° ENE 21:33:36 29° SE
Okean 1-7 4.2 21:31:06 26° E 21:31:06 26° E 21:34:30 10° NNE
Terra 3.6 21:31:11 16° ENE 21:31:54 16° ENE 21:34:46 10° NNE
SL-08 RB Rocket 4.5 21:31:41 32° E 21:32:43 36° ENE 21:36:53 10° N
Abrixas rocket 3.7 21:30:46 10° W 21:33:49 35° NNW 21:35:57 17° NE
MOS 1-B Rocket 4.2 21:32:22 30° SE 21:35:00 49° ENE 21:40:25 10° N
YAOGAN 11 4.1 21:36:20 41° SE 21:37:41 64° ENE 21:42:00 10° N
Cosmos 1703 Rocket 3.8 21:37:03 42° SE 21:37:49 47° E 21:42:05 10° NNE
CZ-4C R/B 4.5 21:36:33 10° NNW 21:41:42 22° NNE 21:46:59 11° ENE
Cosmos 2279 Rocket 4.5 21:37:46 10° SSW 21:43:56 61° W 21:50:07 10° N
Cosmos 2221 Rocket 4.0 21:44:07 41° E 21:44:07 41° E 21:48:15 10° NNE
Cosmos 2219 Rocket 4.2 21:46:57 12° ENE 21:46:57 12° ENE 21:47:40 10° ENE
MetOp-A 4.1 21:47:16 34° SSE 21:49:42 89° W 21:55:05 10° NNW
Cosmos 1867 3.6 21:45:00 10° NNW 21:50:27 68° NE 21:52:05 44° ESE
Cosmos 489 Rocket 4.4 21:46:11 10° NNW 21:52:34 89° ENE 21:55:23 36° SSE
H-2A R/B 2.4 21:52:49 41° E 21:53:39 44° ENE 21:58:20 10° N
Meteor 1-14 Rocket 4.2 21:48:09 10° N 21:53:49 73° E 21:55:46 42° SSE
OAO 3 Rocket 4.1 21:52:36 10° WSW 21:56:38 33° SSW 21:56:38 33° SSW
YAOGAN 6 4.1 21:56:56 24° SW 21:58:21 32° W 22:01:38 10° NNW
Cosmos 2237 4.3 22:00:10 48° SE 22:00:56 51° ESE 22:06:29 10° NE
SPOT 5 2.8 22:04:10 52° S 22:05:22 82° WSW 22:10:05 10° NNW
Cosmos 968 Rocket 3.5 22:00:19 10° NNW 22:05:32 80° WSW 22:06:50 52° S
Cosmos 2263 Rocket 2.9 22:00:45 10° NW 22:06:03 47° WSW 22:08:25 29° SSW
Meteor 1-25 Rocket 4.1 22:04:07 10° N 22:09:43 72° E 22:10:48 56° SE
COSMOS 2428 3.0 22:10:11 45° E 22:10:11 45° E 22:15:09 10° NE
Meteor 2-10 Rocket 4.2 22:05:36 14° SSW 22:10:36 62° WNW 22:16:22 10° N
Cosmos 2322 Rocket 3.9 22:06:52 10° WSW 22:11:53 33° NW 22:16:57 10° N
Sich 1 Rocket 4.4 22:11:04 10° NNW 22:15:22 48° W 22:16:31 38° SW
Cosmos 2360 Rocket 2.5 22:16:22 10° SW 22:21:58 66° WNW 22:27:39 10° NNE
H-2A R/B 2.6 22:23:59 47° NE 22:23:59 47° NE 22:27:29 10° N
USA 234 4.5 22:22:54 24° SSW 22:25:12 30° SW 22:30:49 10° WNW
Cosmos 1844 4.1 22:22:26 10° NNW 22:27:54 46° ENE 22:28:20 45° ENE
Meteor 1-20 Rocket 4.1 22:23:49 10° N 22:29:25 87° WSW 22:30:10 68° S
Cosmos 2322 4.0 22:25:27 17° SW 22:29:51 67° WNW 22:35:33 10° NNE
S3M 4.5 22:32:12 41° E 22:32:12 41° E 22:37:35 10° NNE
Cosmos 1606 4.5 22:38:58 26° NNE 22:38:58 26° NNE 22:40:44 10° NNE
Meteor 2-6 Rocket 4.2 22:39:59 70° ESE 22:40:05 70° E 22:46:03 10° NNE
SPOT 1/Viking Rocket 3.9 22:40:22 52° SW 22:40:59 56° W 22:46:09 10° NNW
IGS 5A 4.4 22:42:18 42° NNE 22:42:18 42° NNE 22:45:12 10° N
Okean 2 Rocket 3.7 22:40:52 10° NNW 22:44:59 53° WNW 22:44:59 53° WNW
ATLAS 5 CENTAUR R/B 3.0 22:41:06 10° NW 22:46:51 44° WSW 22:47:45 42° SW
Cosmos 2333 Rocket 3.3 22:52:12 32° ENE 22:52:12 32° ENE 22:55:38 10° NE
Cosmos 2333 4.1 22:51:47 87° NE 22:51:47 87° NE 22:57:30 10° NNE
Cosmos 1782 4.2 22:53:34 38° NNW 22:53:34 38° NNW 22:56:14 10° N
Landsat 7 4.3 22:54:28 57° WNW 22:54:28 57° WNW 22:58:44 10° NNW
ARGOS 4.4 22:52:58 30° WSW 22:54:09 33° W 22:58:59 10° NNW
SeaSat 1 3.7 22:57:02 30° WSW 22:57:05 30° WSW 23:01:25 10° NW
Cosmos 2237 Rocket 3.7 22:59:46 25° ENE 22:59:46 25° ENE 23:02:24 10° NE
Cosmos 2278 Rocket 2.8 22:54:57 10° NNW 23:00:07 45° NE 23:00:07 45° NE
Cosmos 1417 Rocket 4.4 23:03:56 78° SW 23:04:21 84° W 23:10:43 10° N
Cosmos 1745 Rocket 4.0 22:59:17 10° N 23:05:30 70° ENE 23:05:30 70° ENE
Terra 2.5 23:10:04 50° NW 23:10:04 50° NW 23:13:52 10° NNW
Cosmos 1844 Rocket 2.9 23:04:02 10° NNW 23:09:04 62° W 23:09:04 62° W
NOSS 3-1 (C) 3.8 23:11:31 52° NE 23:11:31 52° NE 23:16:27 10° NE
Meteor 1-27 Rocket 3.9 23:12:59 67° NNE 23:12:59 67° NNE 23:17:48 10° N
USA 229 DEB 4.3 23:06:55 10° SW 23:13:35 54° NW 23:20:25 10° NNE
USA 229 4.3 23:07:00 10° SW 23:13:40 54° NW 23:20:30 10° NNE
Atlas Centaur 2 4.4 23:11:25 10° WSW 23:14:12 22° SW 23:14:12 22° SW
NOSS 3-1 (A) 4.1 23:26:28 43° NE 23:26:28 43° NE 23:30:51 10° NE
Cosmos 2219 Rocket 2.6 23:28:38 60° N 23:28:38 60° N 23:33:21 10° NNE
CZ-4C R/B 2.9 23:24:25 10° NNW 23:31:31 69° NE 23:32:09 66° E
H-2A R/B 3.8 23:33:27 22° W 23:33:27 22° W 23:37:03 10° NW
Meteor 1-11 Rocket 4.2 23:28:33 10° NNW 23:33:08 55° NW 23:33:08 55° NW
Cosmos 2297 4.5 23:46:09 10° NNW 23:50:39 47° NNE 23:50:39 47° NNE
COSMOS 2428 4.4 23:52:07 23° W 23:54:12 29° NW 23:59:06 10° N
